Notices

What's New in latest Release from April 7th, 2021:

- Updated Glossary, including Speed of Maximum Gust, and Total Hourly Precipitation

- Updated national and regional climate services offices contacts and prices information

- Addition of station inventory lists for 1981-2010, 1971-2000, and 1961-1990 Normals.

If you haven't already, please take our survey and provide feedback about our website: https://eccc.sondage-survey.ca/f/LanguageSelection.aspx?s=442ca660-fcf1-47c0-95a9-59707d6fd709

Hourly Data Report for September 24, 2020

OTTAWA INTL A
ONTARIO
Current Station Operator: NAVCAN

45°19'00.000" N
75°40'00.000" W
114.90 m
6106001
71628
YOW

Download Data

Hourly Data (September 2020)
Hourly Data Report for September 24, 2020
TIME
LST
Temp Definition
°C
Dew Point Definition
°C
Rel Hum Definition
%
Precip. Amount Definition
mm

Wind Dir Definition
10's deg

Wind Spd Definition
km/h
Visibility Definition
km
Stn Press Definition
kPa
Hmdx Definition


Wind Chill Definition


Weather Definition


00:00 12.1 10.0 87   25 10 24.1 99.74     LegendNANA
01:00 11.5 9.8 90   21 8 24.1 99.72     Clear
02:00 11.2 10.0 92   21 7 24.1 99.70     LegendNANA
03:00 10.7 9.7 94   23 8 24.1 99.73     LegendNANA
04:00 10.3 9.7 96   21 8 24.1 99.77     Clear
05:00 10.6 10.1 97   21 9 24.1 99.80     LegendNANA
06:00 10.8 10.5 98   21 9 24.1 99.86     LegendNANA
07:00 11.6 11.3 98   22 8 24.1 99.89     Mostly Cloudy
08:00 12.9 12.2 95   26 5 24.1 99.96     LegendNANA
09:00 15.3 12.8 85   25 8 24.1 100.04     LegendNANA
10:00 15.9 12.6 80   34 10 24.1 100.04     Mostly Cloudy
11:00 17.4 13.0 75   32 8 24.1 100.07     LegendNANA
12:00 16.8 13.1 78   36 6 24.1 100.06     LegendNANA
13:00 16.7 13.4 81   31 12 24.1 100.06     Rain Showers
14:00 15.0 13.8 92   29 12 16.1 100.10     Rain Showers
15:00 15.4 14.1 92   23 5 24.1 100.04     LegendNANA
16:00 16.1 14.2 88   26 9 24.1 100.07     Mostly Cloudy
17:00 15.7 14.0 89   29 6 24.1 100.11     LegendNANA
18:00 14.6 10.3 75   1 11 24.1 100.15     LegendNANA
19:00 14.0 9.8 76   1 12 24.1 100.17     Mostly Cloudy
20:00 14.1 7.8 66   35 10 24.1 100.24     LegendNANA
21:00 13.3 8.6 73   1 11 24.1 100.27     LegendNANA
22:00 13.2 8.2 71   3 12 24.1 100.31     Mostly Cloudy
23:00 11.8 8.8 82   4 12 24.1 100.32     LegendNANA

Notes on Data Quality.

Legend

  • E = Estimated
  • M = Missing
  • NA = Not Available*
  • [empty] = Indicates an unobserved value
Date modified: